User: anonymous   Login
Location: Unspecified
(43.3830°N, 0.0000°E)
Time: 13:54:10
(UTC+00:00)
Language:

Vanguard 2 Rocket - Orbit

View from above orbital plane
View from above orbital plane
View from above satellite
View from above satellite

Ground track
Ground track

The orbit data is extracted from the following two-line orbital elements,

1    12U 59001B   19176.37939048 +.00000082 +00000-0 +45592-4 0  9994
2    12 032.8988 163.7630 1665754 353.4144 004.6838 11.44265112238950
Epoch (UTC): 25 June 2019 09:06:19
Eccentricity: 0.1665754
inclination: 32.8988°
perigee height: 555 km
apogee height: 3326 km
right ascension of ascending node: 163.7630°
argument of perigee: 353.4144°
revolutions per day: 11.44265112
mean anomaly at epoch: 4.6838°
orbit number at epoch: 23895

The dashed part of the orbit path shows where the satellite is in the earth's shadow,  

DLR